Simultaneous Nadir Overpasses (SNOs) Predictions

Prediction of SNOs near equator between AQUA and NPP Satellite Orbit:

Table of predicted SNOs near equator for the next 14.0 days since TLE Epoch: 5/5/2017
Index Date (AQUA) Time (AQUA) AQUA Lat,Lon Date (NPP) Time (NPP) NPP Lat,Lon Distance(km) Time Diff (sec)
1 05/05/2017 16:25:33 -4.98, 136.78 05/05/2017 16:15:54 -4.91, 136.52 29.85 579
2 05/05/2017 17:13:47 0.36, -54.61 05/05/2017 17:05:24 0.26, -55.14 59.79 503
3 05/05/2017 18:01:55 4.15, 114.00 05/05/2017 17:54:47 4.31, 113.21 89.34 428
4 05/08/2017 08:41:32 -3.33,-106.98 05/08/2017 08:32:20 -3.23,-107.33 40.25 552
5 05/08/2017 09:29:46 -1.29, 61.62 05/08/2017 09:21:50 -1.42, 61.00 70.06 476
6 05/08/2017 10:17:54 5.80,-129.76 05/08/2017 10:11:13 5.99,-130.64 99.36 401
7 05/11/2017 00:09:24 6.19,-159.36 05/10/2017 23:59:24 6.13,-159.54 20.69 600
8 05/11/2017 00:57:31 -1.63, 9.26 05/11/2017 00:48:47 -1.56, 8.81 50.64 524
9 05/11/2017 01:45:46 -2.94, 177.86 05/11/2017 01:38:17 -3.09, 177.15 80.31 449
10 05/13/2017 16:25:23 4.49, -43.12 05/13/2017 16:15:51 4.46, -43.40 31.19 572
11 05/13/2017 17:13:31 0.01, 125.50 05/13/2017 17:05:14 0.12, 124.96 60.98 497
12 05/13/2017 18:01:46 -4.58, -65.91 05/13/2017 17:54:44 -4.76, -66.70 90.51 422
13 05/16/2017 07:59:22 -29.95,-100.71 05/16/2017 07:49:22 -30.51,-101.26 81.64 600
14 05/16/2017 08:41:23 2.86, 73.12 05/16/2017 08:32:18 2.79, 72.75 41.49 545
15 05/16/2017 09:29:31 1.64,-118.27 05/16/2017 09:21:41 1.79,-118.90 71.39 470
16 05/19/2017 00:09:07 -5.80, 20.75 05/18/2017 23:59:14 -5.77, 20.56 22.09 593
17 05/19/2017 00:57:22 1.24,-170.65 05/19/2017 00:48:44 1.12,-171.11 52.00 518
18 05/19/2017 01:45:29 3.32, -2.03 05/19/2017 01:38:07 3.45, -2.75 81.76 442




NCC Satellite Simultaneous Nadir Overpasses (SNOs) Prediction Service
